Deadhorse, AK

3:35 AM AKDT on March 24, 2017 (GMT -0800)
Deadhorse

Weather History for PASC - February, 2013

Change the Weather History Date:

Friday, February 8, 2013

  Actual Average Record
Temperature  
Mean Temperature -32 °F -  
Max Temperature -27 °F -7 °F 43 °F (1998)
Min Temperature -38 °F -19 °F -46 °F (1990)
Degree Days  
Heating Degree Days 98    
Moisture  
Dew Point -35 °F    
Average Humidity 70    
Maximum Humidity 73    
Minimum Humidity 66    
Precipitation  
Precipitation 0.00 in - - ()
Sea Level Pressure  
Sea Level Pressure 29.91 in    
Wind  
Wind Speed 3 mph (WNW)    
Max Wind Speed 7 mph    
Max Gust Speed -    
Visibility 8 miles    
Events      
Averages and records for this station are not official NWS values.
T = Trace of Precipitation, MM = Missing Value Source: NWS Daily Summary

Daily Weather History Graph

Daily Weather History Graph

Search for Another Location

Airport or City:

Trip Planner

Search our weather history database for the weather conditions in past years. The results will help you decide how hot, cold, wet, or windy it might be!

Date:

Astronomy

Feb. 08, 2013 Rise Set
Actual Time 10:01 AM AKST 4:15 PM AKST
Civil Twilight 8:45 AM AKST 5:31 PM AKST
Nautical Twilight 7:30 AM AKST 6:47 PM AKST
Astronomical Twilight 6:19 AM AKST 7:58 PM AKST
Moon 9:08 AM AKST (2/8) 2:39 PM AKST (2/8)
Length of Visible Light 8h 46m
Length of Day
6h 14m
Waning Crescent, 3% of the Moon is Illuminated
Feb 8
Waning Crescent
Feb 9
New
Feb 17
First Quarter
Feb 25
Full
Mar 4
Last Quarter

Hourly Weather History & Observations

Time (AKST) Temp. Windchill Dew Point Humidity Pressure Visibility Wind Dir Wind Speed Gust Speed Precip Events Conditions
12:32 AM -38.2 °F - - N/A% 29.79 in 1.5 mi Calm Calm - N/A   Scattered Clouds
12:53 AM -38.9 °F -55.3 °F - N/A% 29.80 in 1.2 mi NNE 4.6 mph - N/A   Partly Cloudy
1:31 AM -38.2 °F -56.9 °F - N/A% 29.79 in 3.0 mi NNE 5.8 mph - N/A   Partly Cloudy
1:53 AM -36.0 °F -49.0 °F - N/A% 29.81 in 4.0 mi NE 3.5 mph - N/A   Scattered Clouds
2:53 AM -36.0 °F -52.0 °F - N/A% 29.81 in 7.0 mi ENE 4.6 mph - N/A   Mostly Cloudy
3:53 AM -34.1 °F - - N/A% 29.81 in 7.0 mi Calm Calm - N/A   Overcast
4:53 AM -34.1 °F - - N/A% 29.82 in 9.0 mi Calm Calm - N/A   Overcast
5:53 AM -33.0 °F - - N/A% 29.82 in 9.0 mi Calm Calm - N/A   Overcast
6:53 AM -32.8 °F - - N/A% 29.82 in 10.0 mi Calm Calm - N/A   Overcast
7:53 AM -32.1 °F -44.5 °F - N/A% 29.83 in 10.0 mi NNW 3.5 mph - N/A   Overcast
8:53 AM -32.1 °F -47.3 °F - N/A% 29.86 in 7.0 mi NNW 4.6 mph - N/A   Overcast
9:53 AM -33.0 °F -50.7 °F - N/A% 29.88 in 10.0 mi West 5.8 mph - N/A   Overcast
10:53 AM -33.0 °F -48.4 °F - N/A% 29.88 in 10.0 mi NW 4.6 mph - N/A   Overcast
11:53 AM -33.0 °F -52.7 °F - N/A% 29.91 in 9.0 mi West 6.9 mph - N/A   Overcast
12:53 PM -29.0 °F -43.8 °F -35.0 °F 73% 29.92 in 10.0 mi NNE 4.6 mph - N/A   Mostly Cloudy
1:53 PM -29.0 °F -43.8 °F -36.0 °F 69% 29.94 in 7.0 mi SW 4.6 mph - N/A   Overcast
2:53 PM -29.9 °F -44.8 °F - N/A% 29.96 in 10.0 mi WSW 4.6 mph - N/A   Mostly Cloudy
3:53 PM -32.1 °F -49.6 °F - N/A% 29.97 in 10.0 mi WSW 5.8 mph - N/A   Partly Cloudy
4:53 PM -32.1 °F -47.3 °F - N/A% 29.99 in 9.0 mi WNW 4.6 mph - N/A   Scattered Clouds
5:53 PM -31.0 °F -43.3 °F - N/A% 30.00 in 9.0 mi NW 3.5 mph - N/A   Mostly Cloudy
6:53 PM -29.9 °F - - N/A% 30.01 in 10.0 mi Calm Calm - N/A   Overcast
7:53 PM -29.0 °F - -36.9 °F 66% 30.03 in 9.0 mi Calm Calm - N/A   Overcast
8:53 PM -29.9 °F -42.0 °F - N/A% 30.04 in 9.0 mi SW 3.5 mph - N/A   Overcast
9:53 PM -27.9 °F -42.5 °F -35.0 °F 69% 30.05 in 9.0 mi WSW 4.6 mph - N/A   Overcast
10:53 PM -27.9 °F -39.8 °F -34.1 °F 73% 30.06 in 10.0 mi West 3.5 mph - N/A   Overcast
11:53 PM -27.9 °F -44.7 °F -35.0 °F 69% 30.06 in 10.0 mi NNW 5.8 mph - N/A   Overcast